| time (UTC) | temp C | wind direction | speed KPH | gust KPH | rain 1hr cm | rain 24hr cm | rain mn cm | humidity % | barometer mb |
| 20260504081534 | 4 | 146 | 1.6 | 12.9 | 0.00 | 0.00 | 0.00 | 90 | 1009.6 |
| 20260504050007 | 4 | 197 | 0.0 | 9.7 | 0.00 | 0.00 | 0.00 | 65 | 1010.2 |
| 20260504044504 | 5 | 150 | 3.2 | 11.3 | 0.00 | 0.00 | 0.00 | 61 | 1010.4 |
| 20260504043002 | 5 | 190 | 1.6 | 6.4 | 0.00 | 0.00 | 0.00 | 58 | 1010.5 |
| 20260504041500 | 5 | 176 | 3.2 | 6.4 | 0.00 | 0.00 | 0.00 | 59 | 1010.7 |
| 20260504040124 | 4 | 190 | 3.2 | 9.7 | 0.00 | 0.00 | 0.00 | 59 | 1010.7 |
| 20260504034557 | 4 | 244 | 1.6 | 4.8 | 0.00 | 0.00 | 0.00 | 59 | 1010.6 |
| 20260504033101 | 3 | 186 | 1.6 | 8.0 | 0.00 | 0.00 | 0.00 | 59 | 1010.6 |
| 20260504031559 | 2 | 175 | 1.6 | 9.7 | 0.00 | 0.00 | 0.00 | 68 | 1010.4 |
| 20260504030057 | 1 | 173 | 3.2 | 4.8 | 0.00 | 0.00 | 0.00 | 70 | 1010.5 |
| 20260504024556 | 1 | 173 | 1.6 | 4.8 | 0.00 | 0.00 | 0.00 | 73 | 1010.5 |
| 20260504023100 | 1 | 174 | 1.6 | 4.8 | 0.00 | 0.00 | 0.00 | 72 | 1010.7 |
| 20260504021553 | 1 | 174 | 1.6 | 4.8 | 0.00 | 0.00 | 0.00 | 74 | 1010.8 |
| 20260504020052 | 1 | 174 | 1.6 | 4.8 | 0.00 | 0.00 | 0.00 | 71 | 1010.9 |
| 20260504014604 | 1 | 234 | 1.6 | 4.8 | 0.00 | 0.00 | 0.00 | 70 | 1011.0 |
| 20260504013054 | 1 | 234 | 1.6 | 4.8 | 0.00 | 0.00 | 0.00 | 72 | 1010.9 |
| 20260504011550 | 2 | 252 | 1.6 | 4.8 | 0.00 | 0.00 | 0.00 | 71 | 1010.6 |
| 20260504010053 | 2 | 252 | 1.6 | 4.8 | 0.00 | 0.00 | 0.00 | 72 | 1010.6 |
| 20260504004552 | 2 | 252 | 1.6 | 3.2 | 0.00 | 0.00 | 0.00 | 72 | 1010.5 |
| 20260504003055 | 2 | 252 | 1.6 | 4.8 | 0.00 | 0.00 | 0.00 | 68 | 1010.5 |
| 20260504001601 | 3 | 252 | 0.0 | 3.2 | 0.00 | 0.00 | 0.00 | 65 | 1010.2 |
| 20260504000047 | 4 | 252 | 0.0 | 0.0 | 0.00 | 0.00 | 0.00 | 65 | 1010.2 |
| 20260503234544 | 5 | 252 | 0.0 | 0.0 | 0.00 | 0.00 | 0.00 | 65 | 1010.1 |
| 20260503233044 | 5 | 252 | 0.0 | 1.6 | 0.00 | 0.00 | 0.00 | 64 | 1010.1 |
| 20260503231541 | 5 | 252 | 0.0 | 3.2 | 0.00 | 0.00 | 0.00 | 64 | 1010.0 |
| 20260503230041 | 6 | 252 | 0.0 | 4.8 | 0.00 | 0.00 | 0.00 | 57 | 1010.0 |
| 20260503224540 | 6 | 296 | 0.0 | 4.8 | 0.00 | 0.00 | 0.00 | 55 | 1010.0 |
| 20260503223038 | 6 | 298 | 1.6 | 9.7 | 0.00 | 0.00 | 0.00 | 54 | 1010.0 |
| 20260503221539 | 6 | 281 | 1.6 | 11.3 | 0.00 | 0.00 | 0.00 | 52 | 1009.9 |
| 20260503220037 | 6 | 259 | 3.2 | 9.7 | 0.00 | 0.00 | 0.00 | 53 | 1009.9 |
| 20260503214537 | 6 | 323 | 3.2 | 8.0 | 0.00 | 0.00 | 0.00 | 53 | 1009.7 |
| 20260503213033 | 6 | 219 | 3.2 | 8.0 | 0.00 | 0.00 | 0.00 | 54 | 1009.9 |
| 20260503211533 | 6 | 288 | 1.6 | 6.4 | 0.00 | 0.00 | 0.00 | 54 | 1009.7 |
| 20260503210031 | 6 | 311 | 1.6 | 6.4 | 0.00 | 0.00 | 0.00 | 56 | 1009.7 |
| 20260503204531 | 6 | 306 | 3.2 | 8.0 | 0.00 | 0.00 | 0.00 | 57 | 1009.7 |
| 20260503203100 | 6 | 244 | 1.6 | 12.9 | 0.00 | 0.00 | 0.00 | 58 | 1009.7 |
| 20260503201558 | 6 | 360 | 4.8 | 12.9 | 0.00 | 0.00 | 0.00 | 56 | 1009.7 |
| 20260503200059 | 5 | 284 | 3.2 | 8.0 | 0.00 | 0.00 | 0.00 | 59 | 1009.9 |
| 20260503194555 | 5 | 302 | 3.2 | 12.9 | 0.00 | 0.00 | 0.00 | 60 | 1010.2 |
| 20260503193059 | 5 | 318 | 3.2 | 16.1 | 0.00 | 0.00 | 0.00 | 60 | 1010.1 |
| 20260503191603 | 5 | 303 | 6.4 | 14.5 | 0.00 | 0.00 | 0.00 | 60 | 1010.4 |
| 20260503190048 | 5 | 300 | 6.4 | 12.9 | 0.00 | 0.00 | 0.00 | 61 | 1010.4 |
| 20260503184547 | 5 | 297 | 4.8 | 12.9 | 0.00 | 0.00 | 0.00 | 61 | 1010.5 |
| 20260503183107 | 5 | 329 | 3.2 | 6.4 | 0.00 | 0.00 | 0.00 | 61 | 1010.6 |
| 20260503181613 | 5 | 28 | 3.2 | 9.7 | 0.00 | 0.00 | 0.00 | 60 | 1010.5 |
| 20260503180043 | 5 | 324 | 4.8 | 14.5 | 0.00 | 0.00 | 0.00 | 60 | 1010.5 |
| 20260503174543 | 5 | 346 | 4.8 | 12.9 | 0.00 | 0.00 | 0.00 | 60 | 1010.5 |
| 20260503173045 | 5 | 286 | 4.8 | 14.5 | 0.00 | 0.00 | 0.00 | 60 | 1010.6 |
| 20260503171540 | 5 | 295 | 8.0 | 12.9 | 0.00 | 0.00 | 0.00 | 61 | 1010.6 |
| 20260503150106 | 5 | 324 | 3.2 | 11.3 | 0.00 | 0.00 | 0.00 | 60 | 1011.2 |